,,PressureMeas_1m,,PRMeasQMR101_1,,RHStat155_1m_1,,SRMeasQMS101R_1m,,TAStat155_1m_1,,GenWind_1,,GenWind_1,
2019-07-20, 07:00:06,VALID,916.484,VALID,0.0,VALID,97.526,VALID,45.559,VALID,18.36,VALID,108.0,VALID,0.0,
2019-07-20, 07:01:06,VALID,916.526,VALID,0.0,VALID,97.416,VALID,47.302,VALID,18.382,VALID,107.0,VALID,0.0,
2019-07-20, 07:02:06,VALID,916.537,VALID,0.0,VALID,97.356,VALID,49.073,VALID,18.419,VALID,90.0,VALID,0.0,
2019-07-20, 07:03:06,VALID,916.56,VALID,0.0,VALID,97.221,VALID,50.901,VALID,18.428,VALID,87.0,VALID,0.0,
2019-07-20, 07:04:06,VALID,916.583,VALID,0.0,VALID,97.093,VALID,52.77,VALID,18.44,VALID,91.0,VALID,0.0,
2019-07-20, 07:05:06,VALID,916.629,VALID,0.0,VALID,97.067,VALID,54.694,VALID,18.463,VALID,94.0,VALID,0.0,
2019-07-20, 07:06:06,VALID,916.62,VALID,0.0,VALID,96.993,VALID,56.588,VALID,18.481,VALID,95.0,VALID,0.0,
2019-07-20, 07:07:06,VALID,916.621,VALID,0.0,VALID,96.83,VALID,58.487,VALID,18.484,VALID,100.0,VALID,0.0,
2019-07-20, 07:08:06,VALID,916.657,VALID,0.0,VALID,96.809,VALID,60.38,VALID,18.499,VALID,104.0,VALID,0.0,
2019-07-20, 07:09:06,VALID,916.671,VALID,0.0,VALID,96.816,VALID,62.224,VALID,18.529,VALID,91.0,VALID,0.0,
2019-07-20, 07:10:06,VALID,916.689,VALID,0.0,VALID,96.697,VALID,64.089,VALID,18.531,VALID,81.0,VALID,0.0,
2019-07-20, 07:11:06,VALID,916.71,VALID,0.0,VALID,96.611,VALID,65.906,VALID,18.527,VALID,95.0,VALID,0.0,
2019-07-20, 07:12:06,VALID,916.701,VALID,0.0,VALID,96.765,VALID,67.706,VALID,18.56,VALID,89.0,VALID,0.0,
2019-07-20, 07:13:06,VALID,916.717,VALID,0.0,VALID,96.627,VALID,69.449,VALID,18.583,VALID,103.0,VALID,0.0,
2019-07-20, 07:14:06,VALID,916.712,VALID,0.0,VALID,96.636,VALID,71.129,VALID,18.63,VALID,82.0,VALID,0.0,
2019-07-20, 07:15:06,VALID,916.718,VALID,0.0,VALID,96.522,VALID,72.712,VALID,18.664,VALID,79.0,VALID,0.0,
2019-07-20, 07:16:06,VALID,916.714,VALID,0.0,VALID,96.348,VALID,74.295,VALID,18.673,VALID,98.0,VALID,0.0,
2019-07-20, 07:17:06,VALID,916.708,VALID,0.0,VALID,96.439,VALID,75.764,VALID,18.723,VALID,90.0,VALID,0.0,
2019-07-20, 07:18:06,VALID,916.722,VALID,0.0,VALID,96.471,VALID,77.114,VALID,18.763,VALID,86.0,VALID,0.0,
2019-07-20, 07:19:06,VALID,916.739,VALID,0.0,VALID,96.336,VALID,78.341,VALID,18.795,VALID,90.0,VALID,0.0,
2019-07-20, 07:20:06,VALID,916.759,VALID,0.0,VALID,96.326,VALID,79.363,VALID,18.85,VALID,85.0,VALID,0.0,
2019-07-20, 07:21:06,VALID,916.796,VALID,0.0,VALID,96.273,VALID,80.318,VALID,18.877,VALID,85.0,VALID,0.0,
2019-07-20, 07:22:06,VALID,916.792,VALID,0.0,VALID,96.02,VALID,81.17,VALID,18.86,VALID,84.0,VALID,0.0,
2019-07-20, 07:23:06,VALID,916.813,VALID,0.0,VALID,95.942,VALID,81.934,VALID,18.87,VALID,84.0,VALID,0.0,
2019-07-20, 07:24:06,VALID,916.834,VALID,0.0,VALID,96.1,VALID,82.657,VALID,18.909,VALID,85.0,VALID,0.0,
2019-07-20, 07:25:06,VALID,916.856,VALID,0.0,VALID,96.463,VALID,83.359,VALID,18.954,VALID,95.0,VALID,0.0,
2019-07-20, 07:26:06,VALID,916.884,VALID,0.0,VALID,96.662,VALID,84.109,VALID,18.973,VALID,121.0,VALID,0.0,
2019-07-20, 07:27:06,VALID,916.891,VALID,0.0,VALID,96.931,VALID,84.839,VALID,19.037,VALID,108.0,VALID,0.0,
2019-07-20, 07:28:06,VALID,916.899,VALID,0.0,VALID,97.128,VALID,85.517,VALID,19.082,VALID,107.0,VALID,0.0,
2019-07-20, 07:29:06,VALID,916.923,VALID,0.0,VALID,96.906,VALID,86.15,VALID,19.116,VALID,105.0,VALID,0.0,
2019-07-20, 07:30:06,VALID,916.943,VALID,0.0,VALID,96.378,VALID,86.827,VALID,19.119,VALID,105.0,VALID,0.0,
2019-07-20, 07:31:06,VALID,916.946,VALID,0.0,VALID,95.115,VALID,87.484,VALID,19.188,VALID,105.0,VALID,0.0,
2019-07-20, 07:32:06,VALID,916.955,VALID,0.0,VALID,94.517,VALID,88.22,VALID,19.305,VALID,105.0,VALID,0.0,
2019-07-20, 07:33:06,VALID,916.938,VALID,0.0,VALID,94.504,VALID,88.962,VALID,19.437,VALID,105.0,VALID,0.0,
2019-07-20, 07:34:06,VALID,916.941,VALID,0.0,VALID,94.387,VALID,89.857,VALID,19.507,VALID,109.0,VALID,0.0,
2019-07-20, 07:35:06,VALID,916.926,VALID,0.0,VALID,92.034,VALID,90.771,VALID,19.582,VALID,115.0,VALID,0.0,
2019-07-20, 07:36:06,VALID,916.942,VALID,0.0,VALID,91.983,VALID,91.771,VALID,19.698,VALID,115.0,VALID,0.0,
2019-07-20, 07:37:06,VALID,916.948,VALID,0.0,VALID,92.196,VALID,93.032,VALID,19.779,VALID,147.0,VALID,0.0,
2019-07-20, 07:38:06,VALID,916.953,VALID,0.0,VALID,92.538,VALID,94.488,VALID,19.866,VALID,152.0,VALID,0.0,
2019-07-20, 07:39:06,VALID,916.97,VALID,0.0,VALID,93.287,VALID,96.202,VALID,19.93,VALID,151.0,VALID,0.0,
2019-07-20, 07:40:06,VALID,916.981,VALID,0.0,VALID,90.287,VALID,98.181,VALID,19.94,VALID,152.0,VALID,0.0,
2019-07-20, 07:41:06,VALID,916.998,VALID,0.0,VALID,89.109,VALID,100.127,VALID,20.031,VALID,153.0,VALID,0.0,
2019-07-20, 07:42:06,VALID,917.024,VALID,0.0,VALID,88.248,VALID,102.555,VALID,20.102,VALID,177.0,VALID,0.0,
2019-07-20, 07:43:06,VALID,917.043,VALID,0.0,VALID,87.176,VALID,105.843,VALID,20.182,VALID,159.0,VALID,0.0,
2019-07-20, 07:44:06,VALID,917.064,VALID,0.0,VALID,87.916,VALID,109.138,VALID,20.27,VALID,165.0,VALID,0.0,
2019-07-20, 07:45:06,VALID,917.054,VALID,0.0,VALID,88.394,VALID,112.365,VALID,20.322,VALID,160.0,VALID,0.0,
2019-07-20, 07:46:06,VALID,917.081,VALID,0.0,VALID,89.319,VALID,116.088,VALID,20.359,VALID,161.0,VALID,0.0,
2019-07-20, 07:47:06,VALID,917.075,VALID,0.0,VALID,89.468,VALID,120.926,VALID,20.336,VALID,176.0,VALID,0.0,
2019-07-20, 07:48:06,VALID,917.078,VALID,0.0,VALID,89.563,VALID,125.769,VALID,20.282,VALID,184.0,VALID,0.0,
2019-07-20, 07:49:06,VALID,917.087,VALID,0.0,VALID,90.134,VALID,125.835,VALID,20.249,VALID,192.0,VALID,0.0,
2019-07-20, 07:50:06,VALID,917.125,VALID,0.0,VALID,89.139,VALID,127.122,VALID,20.246,VALID,174.0,VALID,0.0,
2019-07-20, 07:51:06,VALID,917.134,VALID,0.0,VALID,89.495,VALID,129.046,VALID,20.286,VALID,161.0,VALID,0.0,
2019-07-20, 07:52:06,VALID,917.149,VALID,0.0,VALID,89.664,VALID,135.059,VALID,20.301,VALID,157.0,VALID,0.0,
2019-07-20, 07:53:06,VALID,917.17,VALID,0.0,VALID,88.451,VALID,136.876,VALID,20.367,VALID,166.0,VALID,0.0,
2019-07-20, 07:54:06,VALID,917.204,VALID,0.0,VALID,89.957,VALID,142.126,VALID,20.421,VALID,137.0,VALID,0.0,
2019-07-20, 07:55:06,VALID,917.197,VALID,0.0,VALID,90.011,VALID,152.957,VALID,20.454,VALID,140.0,VALID,0.0,
2019-07-20, 07:56:06,VALID,917.212,VALID,0.0,VALID,89.372,VALID,158.735,VALID,20.509,VALID,135.0,VALID,0.0,
2019-07-20, 07:57:06,VALID,917.234,VALID,0.0,VALID,88.23,VALID,175.5,VALID,20.597,VALID,152.0,VALID,0.0,
2019-07-20, 07:58:06,VALID,917.244,VALID,0.0,VALID,84.525,VALID,194.654,VALID,20.719,VALID,144.0,VALID,0.0,
2019-07-20, 07:59:06,VALID,917.258,VALID,0.0,VALID,85.577,VALID,214.433,VALID,20.857,VALID,163.0,VALID,0.0,
2019-07-20, 08:00:06,VALID,917.293,VALID,0.0,VALID,85.657,VALID,216.073,VALID,20.95,VALID,139.0,VALID,0.0,
2019-07-20, 08:01:06,VALID,917.306,VALID,0.0,VALID,87.455,VALID,223.187,VALID,21.072,VALID,118.0,VALID,0.0,
2019-07-20, 08:02:06,VALID,917.302,VALID,0.0,VALID,86.447,VALID,210.32,VALID,21.172,VALID,142.0,VALID,0.0,
2019-07-20, 08:03:06,VALID,917.29,VALID,0.0,VALID,84.408,VALID,194.292,VALID,21.212,VALID,175.0,VALID,0.0,
2019-07-20, 08:04:06,VALID,917.297,VALID,0.0,VALID,83.609,VALID,181.771,VALID,21.168,VALID,146.0,VALID,0.0,
2019-07-20, 08:05:06,VALID,917.258,VALID,0.0,VALID,85.446,VALID,177.117,VALID,21.168,VALID,125.0,VALID,0.0,
2019-07-20, 08:06:06,VALID,917.264,VALID,0.0,VALID,83.649,VALID,167.574,VALID,21.2,VALID,161.0,VALID,0.0,
2019-07-20, 08:07:06,VALID,917.243,VALID,0.0,VALID,82.614,VALID,171.46,VALID,21.247,VALID,162.0,VALID,0.0,
2019-07-20, 08:08:06,VALID,917.257,VALID,0.0,VALID,82.948,VALID,192.947,VALID,21.272,VALID,127.0,VALID,0.0,
2019-07-20, 08:09:06,VALID,917.277,VALID,0.0,VALID,83.822,VALID,205.007,VALID,21.297,VALID,149.0,VALID,0.0,
2019-07-20, 08:10:06,VALID,917.295,VALID,0.0,VALID,83.893,VALID,197.001,VALID,21.385,VALID,116.0,VALID,0.0,
2019-07-20, 08:11:06,VALID,917.32,VALID,0.0,VALID,84.501,VALID,188.601,VALID,21.466,VALID,125.0,VALID,0.0,
2019-07-20, 08:12:06,VALID,917.35,VALID,0.0,VALID,83.844,VALID,195.362,VALID,21.496,VALID,132.0,VALID,0.0,
2019-07-20, 08:13:06,VALID,917.354,VALID,0.0,VALID,84.633,VALID,197.602,VALID,21.492,VALID,124.0,VALID,0.0,
2019-07-20, 08:14:06,VALID,917.372,VALID,0.0,VALID,84.62,VALID,212.119,VALID,21.491,VALID,131.0,VALID,0.0,
2019-07-20, 08:15:06,VALID,917.37,VALID,0.0,VALID,84.831,VALID,213.093,VALID,21.506,VALID,128.0,VALID,0.0,
2019-07-20, 08:16:06,VALID,917.379,VALID,0.0,VALID,82.694,VALID,202.015,VALID,21.523,VALID,145.0,VALID,0.0,
2019-07-20, 08:17:06,VALID,917.377,VALID,0.0,VALID,81.967,VALID,192.697,VALID,21.617,VALID,163.0,VALID,0.0,
2019-07-20, 08:18:06,VALID,917.379,VALID,0.0,VALID,81.175,VALID,191.008,VALID,21.65,VALID,146.0,VALID,0.0,
2019-07-20, 08:19:06,VALID,917.393,VALID,0.0,VALID,81.92,VALID,197.479,VALID,21.697,VALID,124.0,VALID,0.0,
2019-07-20, 08:20:06,VALID,917.392,VALID,0.0,VALID,83.173,VALID,188.597,VALID,21.744,VALID,145.0,VALID,0.0,
2019-07-20, 08:21:06,VALID,917.399,VALID,0.0,VALID,80.584,VALID,194.248,VALID,21.754,VALID,154.0,VALID,0.0,
2019-07-20, 08:22:06,VALID,917.434,VALID,0.0,VALID,81.087,VALID,186.423,VALID,21.763,VALID,133.0,VALID,0.0,
2019-07-20, 08:23:06,VALID,917.426,VALID,0.0,VALID,81.85,VALID,192.707,VALID,21.8,VALID,127.0,VALID,0.0,
2019-07-20, 08:24:06,VALID,917.429,VALID,0.0,VALID,79.565,VALID,210.187,VALID,21.829,VALID,149.0,VALID,0.0,
2019-07-20, 08:25:06,VALID,917.437,VALID,0.0,VALID,79.309,VALID,249.016,VALID,21.866,VALID,136.0,VALID,0.0,
2019-07-20, 08:26:06,VALID,917.437,VALID,0.0,VALID,78.452,VALID,269.602,VALID,21.909,VALID,121.0,VALID,0.0,
2019-07-20, 08:27:06,VALID,917.453,VALID,0.0,VALID,78.812,VALID,263.914,VALID,21.894,VALID,132.0,VALID,0.0,
2019-07-20, 08:28:06,VALID,917.456,VALID,0.0,VALID,79.158,VALID,279.056,VALID,21.97,VALID,128.0,VALID,0.0,
2019-07-20, 08:29:06,VALID,917.474,VALID,0.0,VALID,78.677,VALID,289.821,VALID,22.021,VALID,124.0,VALID,0.0,
2019-07-20, 08:30:06,VALID,917.479,VALID,0.0,VALID,78.74,VALID,301.685,VALID,22.051,VALID,126.0,VALID,0.0,
2019-07-20, 08:31:06,VALID,917.467,VALID,0.0,VALID,78.644,VALID,312.822,VALID,22.099,VALID,128.0,VALID,0.0,
2019-07-20, 08:32:06,VALID,917.494,VALID,0.0,VALID,77.916,VALID,326.32,VALID,22.242,VALID,116.0,VALID,0.0,
2019-07-20, 08:33:06,VALID,917.498,VALID,0.0,VALID,74.071,VALID,325.43,VALID,22.326,VALID,101.0,VALID,0.0,
2019-07-20, 08:34:06,VALID,917.513,VALID,0.0,VALID,75.601,VALID,339.828,VALID,22.361,VALID,104.0,VALID,0.0,
2019-07-20, 08:35:06,VALID,917.524,VALID,0.0,VALID,75.186,VALID,347.009,VALID,22.491,VALID,110.0,VALID,0.0,
2019-07-20, 08:36:06,VALID,917.514,VALID,0.0,VALID,74.706,VALID,358.451,VALID,22.513,VALID,77.0,VALID,0.0,
2019-07-20, 08:37:06,VALID,917.541,VALID,0.0,VALID,76.444,VALID,369.525,VALID,22.599,VALID,112.0,VALID,0.0,
2019-07-20, 08:38:06,VALID,917.532,VALID,0.0,VALID,76.16,VALID,370.691,VALID,22.695,VALID,123.0,VALID,0.0,
2019-07-20, 08:39:06,VALID,917.529,VALID,0.0,VALID,73.29,VALID,383.371,VALID,22.806,VALID,99.0,VALID,0.0,
2019-07-20, 08:40:06,VALID,917.521,VALID,0.0,VALID,74.095,VALID,397.808,VALID,22.985,VALID,84.0,VALID,0.0,
2019-07-20, 08:41:06,VALID,917.497,VALID,0.0,VALID,75.147,VALID,406.549,VALID,23.115,VALID,53.0,VALID,0.0,
2019-07-20, 08:42:06,VALID,917.506,VALID,0.0,VALID,75.265,VALID,408.729,VALID,23.402,VALID,93.0,VALID,0.0,
2019-07-20, 08:43:06,VALID,917.504,VALID,0.0,VALID,72.878,VALID,400.437,VALID,23.386,VALID,67.0,VALID,0.0,
2019-07-20, 08:44:06,VALID,917.503,VALID,0.0,VALID,73.782,VALID,357.522,VALID,23.198,VALID,84.0,VALID,0.0,
2019-07-20, 08:45:06,VALID,917.489,VALID,0.0,VALID,71.587,VALID,386.23,VALID,23.103,VALID,81.0,VALID,0.0,
2019-07-20, 08:46:06,VALID,917.498,VALID,0.0,VALID,71.421,VALID,408.206,VALID,23.1,VALID,87.0,VALID,0.0,
2019-07-20, 08:47:06,VALID,917.481,VALID,0.0,VALID,70.987,VALID,404.532,VALID,22.999,VALID,73.0,VALID,0.0,
2019-07-20, 08:48:06,VALID,917.476,VALID,0.0,VALID,70.184,VALID,433.374,VALID,23.04,VALID,94.0,VALID,0.0,
2019-07-20, 08:49:06,VALID,917.48,VALID,0.0,VALID,71.422,VALID,433.763,VALID,23.112,VALID,102.0,VALID,0.0,
2019-07-20, 08:50:06,VALID,917.479,VALID,0.0,VALID,70.897,VALID,417.508,VALID,23.119,VALID,102.0,VALID,0.0,
2019-07-20, 08:51:06,VALID,917.464,VALID,0.0,VALID,69.691,VALID,420.717,VALID,23.026,VALID,78.0,VALID,0.0,
2019-07-20, 08:52:06,VALID,917.456,VALID,0.0,VALID,72.474,VALID,441.277,VALID,22.984,VALID,73.0,VALID,0.0,
2019-07-20, 08:53:06,VALID,917.456,VALID,0.0,VALID,73.074,VALID,434.005,VALID,23.059,VALID,83.0,VALID,0.0,
2019-07-20, 08:54:06,VALID,917.451,VALID,0.0,VALID,73.199,VALID,402.227,VALID,23.138,VALID,69.0,VALID,0.0,
2019-07-20, 08:55:06,VALID,917.453,VALID,0.0,VALID,72.466,VALID,371.498,VALID,23.306,VALID,86.0,VALID,0.0,
2019-07-20, 08:56:06,VALID,917.454,VALID,0.0,VALID,70.994,VALID,378.72,VALID,23.416,VALID,80.0,VALID,0.0,
2019-07-20, 08:57:06,VALID,917.446,VALID,0.0,VALID,70.078,VALID,367.592,VALID,23.33,VALID,80.0,VALID,0.0,
2019-07-20, 08:58:06,VALID,917.454,VALID,0.0,VALID,69.531,VALID,361.931,VALID,23.217,VALID,84.0,VALID,0.0,
2019-07-20, 08:59:06,VALID,917.446,VALID,0.0,VALID,68.929,VALID,396.24,VALID,23.127,VALID,73.0,VALID,0.0,
2019-07-20, 09:00:06,VALID,917.469,VALID,0.0,VALID,71.058,VALID,368.146,VALID,23.142,VALID,75.0,VALID,0.0,
2019-07-20, 09:01:06,VALID,917.469,VALID,0.0,VALID,70.524,VALID,379.93,VALID,23.185,VALID,76.0,VALID,0.0,
2019-07-20, 09:02:06,VALID,917.468,VALID,0.0,VALID,71.019,VALID,473.883,VALID,23.249,VALID,86.0,VALID,0.0,
2019-07-20, 09:03:06,VALID,917.479,VALID,0.0,VALID,70.117,VALID,378.5,VALID,23.254,VALID,84.0,VALID,0.0,
2019-07-20, 09:04:06,VALID,917.497,VALID,0.0,VALID,68.692,VALID,364.724,VALID,23.409,VALID,89.0,VALID,0.0,
2019-07-20, 09:05:06,VALID,917.509,VALID,0.0,VALID,68.825,VALID,317.878,VALID,23.443,VALID,82.0,VALID,0.0,
2019-07-20, 09:06:06,VALID,917.478,VALID,0.0,VALID,68.936,VALID,309.944,VALID,23.366,VALID,77.0,VALID,0.0,
2019-07-20, 09:07:06,VALID,917.501,VALID,0.0,VALID,68.858,VALID,269.881,VALID,23.288,VALID,82.0,VALID,0.0,
2019-07-20, 09:08:06,VALID,917.513,VALID,0.0,VALID,69.096,VALID,269.238,VALID,23.132,VALID,82.0,VALID,0.0,
2019-07-20, 09:09:06,VALID,917.497,VALID,0.0,VALID,70.23,VALID,403.583,VALID,23.052,VALID,85.0,VALID,0.0,
2019-07-20, 09:10:06,VALID,917.49,VALID,0.0,VALID,69.735,VALID,454.606,VALID,23.115,VALID,80.0,VALID,0.0,
2019-07-20, 09:11:06,VALID,917.475,VALID,0.0,VALID,68.475,VALID,586.053,VALID,23.267,VALID,60.0,VALID,0.0,
2019-07-20, 09:12:06,VALID,917.485,VALID,0.0,VALID,68.429,VALID,606.829,VALID,23.469,VALID,70.0,VALID,0.0,
2019-07-20, 09:13:06,VALID,917.484,VALID,0.0,VALID,68.016,VALID,651.574,VALID,23.539,VALID,60.0,VALID,0.0,
2019-07-20, 09:14:06,VALID,917.501,VALID,0.0,VALID,69.067,VALID,664.576,VALID,23.72,VALID,91.0,VALID,0.0,
2019-07-20, 09:15:06,VALID,917.482,VALID,0.0,VALID,67.14,VALID,664.801,VALID,23.861,VALID,75.0,VALID,0.0,
2019-07-20, 09:16:06,VALID,917.477,VALID,0.0,VALID,67.83,VALID,657.4,VALID,23.99,VALID,75.0,VALID,0.0,
2019-07-20, 09:17:06,VALID,917.498,VALID,0.0,VALID,68.094,VALID,657.367,VALID,24.215,VALID,87.0,VALID,0.0,
2019-07-20, 09:18:06,VALID,917.493,VALID,0.0,VALID,65.765,VALID,657.742,VALID,24.316,VALID,89.0,VALID,0.0,
2019-07-20, 09:19:06,VALID,917.472,VALID,0.0,VALID,64.659,VALID,655.537,VALID,24.224,VALID,124.0,VALID,0.0,
2019-07-20, 09:20:06,VALID,917.472,VALID,0.0,VALID,65.678,VALID,657.098,VALID,24.385,INVALID,360.0,VALID,0.0,
2019-07-20, 09:21:06,VALID,917.482,VALID,0.0,VALID,66.593,VALID,657.446,VALID,24.495,INVALID,360.0,VALID,0.0,
2019-07-20, 09:22:06,VALID,917.496,VALID,0.0,VALID,65.208,VALID,655.964,VALID,24.481,INVALID,360.0,VALID,0.0,
2019-07-20, 09:23:06,VALID,917.513,VALID,0.0,VALID,63.258,VALID,653.141,VALID,24.358,INVALID,360.0,VALID,0.0,
2019-07-20, 09:24:06,VALID,917.479,VALID,0.0,VALID,63.923,VALID,654.637,VALID,24.18,INVALID,360.0,VALID,0.0,
2019-07-20, 09:25:06,VALID,917.505,VALID,0.0,VALID,64.802,VALID,655.969,VALID,24.156,INVALID,360.0,VALID,0.0,
2019-07-20, 09:26:06,VALID,917.498,VALID,0.0,VALID,64.709,VALID,651.152,VALID,24.263,INVALID,360.0,VALID,0.289,
2019-07-20, 09:27:06,VALID,917.491,VALID,0.0,VALID,65.623,VALID,608.194,VALID,24.433,VALID,63.0,VALID,2.856,
2019-07-20, 09:28:06,VALID,917.497,VALID,0.0,VALID,64.621,VALID,542.51,VALID,24.469,VALID,82.0,VALID,2.351,
2019-07-20, 09:29:06,VALID,917.508,VALID,0.0,VALID,64.226,VALID,615.404,VALID,24.489,VALID,82.0,VALID,3.17,
2019-07-20, 09:30:06,VALID,917.512,VALID,0.0,VALID,64.588,VALID,595.329,VALID,24.408,INVALID,360.0,VALID,0.031,
2019-07-20, 09:31:06,VALID,917.493,VALID,0.0,VALID,64.219,VALID,549.878,VALID,24.485,INVALID,360.0,VALID,0.0,
2019-07-20, 09:32:06,VALID,917.488,VALID,0.0,VALID,63.556,VALID,434.292,VALID,24.504,INVALID,360.0,VALID,0.0,
2019-07-20, 09:33:06,VALID,917.471,VALID,0.0,VALID,63.263,VALID,513.357,VALID,24.431,INVALID,360.0,VALID,0.0,
2019-07-20, 09:34:06,VALID,917.471,VALID,0.0,VALID,63.908,VALID,625.543,VALID,24.389,INVALID,360.0,VALID,0.0,
2019-07-20, 09:35:06,VALID,917.45,VALID,0.0,VALID,62.835,VALID,633.662,VALID,24.443,INVALID,360.0,VALID,0.0,
2019-07-20, 09:36:06,VALID,917.449,VALID,0.0,VALID,65.794,VALID,700.36,VALID,24.724,INVALID,360.0,VALID,0.0,
2019-07-20, 09:37:06,VALID,917.422,VALID,0.0,VALID,63.165,VALID,653.54,VALID,24.802,INVALID,360.0,VALID,0.0,
2019-07-20, 09:38:06,VALID,917.405,VALID,0.0,VALID,62.439,VALID,602.346,VALID,24.866,INVALID,360.0,VALID,0.0,
2019-07-20, 09:39:06,VALID,917.389,VALID,0.0,VALID,61.886,VALID,492.875,VALID,25.085,INVALID,360.0,VALID,0.0,
2019-07-20, 09:40:06,VALID,917.405,VALID,0.0,VALID,64.036,VALID,371.382,VALID,25.339,INVALID,360.0,VALID,0.0,
2019-07-20, 09:41:06,VALID,917.414,VALID,0.0,VALID,61.932,VALID,315.189,VALID,25.384,INVALID,360.0,VALID,0.0,
2019-07-20, 09:42:06,VALID,917.414,VALID,0.0,VALID,62.811,VALID,333.331,VALID,25.154,INVALID,360.0,VALID,0.0,
2019-07-20, 09:43:06,VALID,917.435,VALID,0.0,VALID,63.508,VALID,332.609,VALID,24.986,INVALID,360.0,VALID,0.0,
2019-07-20, 09:44:06,VALID,917.436,VALID,0.0,VALID,62.709,VALID,322.131,VALID,24.78,INVALID,360.0,VALID,0.0,
2019-07-20, 09:45:06,VALID,917.468,VALID,0.0,VALID,61.902,VALID,342.997,VALID,24.531,INVALID,360.0,VALID,0.0,
2019-07-20, 09:46:06,VALID,917.455,VALID,0.0,VALID,63.534,VALID,369.49,VALID,24.311,INVALID,360.0,VALID,0.0,
2019-07-20, 09:47:06,VALID,917.427,VALID,0.0,VALID,66.343,VALID,399.541,VALID,24.237,INVALID,360.0,VALID,0.0,
2019-07-20, 09:48:06,VALID,917.4,VALID,0.0,VALID,65.446,VALID,473.005,VALID,24.289,INVALID,360.0,VALID,0.0,
2019-07-20, 09:49:06,VALID,917.386,VALID,0.0,VALID,67.518,VALID,546.013,VALID,24.396,INVALID,360.0,VALID,0.0,
2019-07-20, 09:50:06,VALID,917.365,VALID,0.0,VALID,67.22,VALID,605.69,VALID,24.587,INVALID,360.0,VALID,0.0,
2019-07-20, 09:51:06,VALID,917.373,VALID,0.0,VALID,65.695,VALID,586.935,VALID,24.814,INVALID,360.0,VALID,0.0,
2019-07-20, 09:52:06,VALID,917.356,VALID,0.0,VALID,63.118,VALID,650.415,VALID,24.89,INVALID,360.0,VALID,0.0,
2019-07-20, 09:53:06,VALID,917.365,VALID,0.0,VALID,63.783,VALID,709.535,VALID,24.852,INVALID,360.0,VALID,0.0,
2019-07-20, 09:54:06,VALID,917.35,VALID,0.0,VALID,63.685,VALID,698.866,VALID,24.803,INVALID,360.0,VALID,0.0,
2019-07-20, 09:55:06,VALID,917.318,VALID,0.0,VALID,62.16,VALID,610.358,VALID,24.816,INVALID,360.0,VALID,0.0,
2019-07-20, 09:56:06,VALID,917.312,VALID,0.0,VALID,63.53,VALID,618.04,VALID,24.932,INVALID,360.0,VALID,0.0,
2019-07-20, 09:57:06,VALID,917.27,VALID,0.0,VALID,62.293,VALID,664.024,VALID,24.937,INVALID,360.0,VALID,0.0,
2019-07-20, 09:58:06,VALID,917.282,VALID,0.0,VALID,63.811,VALID,826.709,VALID,25.049,INVALID,360.0,VALID,0.0,
2019-07-20, 09:59:06,VALID,917.287,VALID,0.0,VALID,62.543,VALID,864.753,VALID,25.22,INVALID,360.0,VALID,0.0,
2019-07-20, 10:00:06,VALID,917.246,VALID,0.0,VALID,61.858,VALID,858.049,VALID,25.433,INVALID,360.0,VALID,0.0,
2019-07-20, 10:01:06,VALID,917.261,VALID,0.0,VALID,60.484,VALID,832.842,VALID,25.719,INVALID,360.0,VALID,0.0,
2019-07-20, 10:02:06,VALID,917.223,VALID,0.0,VALID,61.394,VALID,796.393,VALID,25.795,INVALID,360.0,VALID,0.0,
2019-07-20, 10:03:06,VALID,917.216,VALID,0.0,VALID,61.265,VALID,790.423,VALID,25.951,INVALID,360.0,VALID,0.0,
2019-07-20, 10:04:06,VALID,917.202,VALID,0.0,VALID,62.374,VALID,819.51,VALID,25.987,INVALID,360.0,VALID,0.0,
2019-07-20, 10:05:06,VALID,917.168,VALID,0.0,VALID,59.645,VALID,753.457,VALID,25.942,INVALID,360.0,VALID,0.0,
2019-07-20, 10:06:06,VALID,917.153,VALID,0.0,VALID,61.014,VALID,688.004,VALID,25.886,INVALID,360.0,VALID,0.0,
2019-07-20, 10:07:06,VALID,917.163,VALID,0.0,VALID,60.918,VALID,582.015,VALID,25.824,INVALID,360.0,VALID,0.0,
2019-07-20, 10:08:06,VALID,917.162,VALID,0.0,VALID,61.682,VALID,486.74,VALID,25.787,INVALID,360.0,VALID,0.0,
2019-07-20, 10:09:06,VALID,917.178,VALID,0.0,VALID,60.188,VALID,597.105,VALID,25.773,INVALID,360.0,VALID,0.0,
2019-07-20, 10:10:06,VALID,917.163,VALID,0.0,VALID,61.231,VALID,542.212,VALID,25.779,VALID,64.0,VALID,0.0,
2019-07-20, 10:11:06,VALID,917.144,VALID,0.0,VALID,60.343,VALID,528.786,VALID,25.703,INVALID,360.0,VALID,0.0,
2019-07-20, 10:12:06,VALID,917.12,VALID,0.0,VALID,58.074,VALID,557.07,VALID,25.487,INVALID,360.0,VALID,0.0,
2019-07-20, 10:13:06,VALID,917.134,VALID,0.0,VALID,59.387,VALID,583.135,VALID,25.26,INVALID,360.0,VALID,0.0,
2019-07-20, 10:14:06,VALID,917.086,VALID,0.0,VALID,60.029,VALID,701.395,VALID,25.163,INVALID,360.0,VALID,0.0,
2019-07-20, 10:15:06,VALID,917.107,VALID,0.0,VALID,60.924,VALID,766.326,VALID,25.375,INVALID,360.0,VALID,0.0,
2019-07-20, 10:16:06,VALID,917.079,VALID,0.0,VALID,60.092,VALID,777.019,VALID,25.56,INVALID,360.0,VALID,0.0,
2019-07-20, 10:17:06,VALID,917.112,VALID,0.0,VALID,57.973,VALID,788.752,VALID,25.69,INVALID,360.0,VALID,0.0,
2019-07-20, 10:18:06,VALID,917.122,VALID,0.0,VALID,57.715,VALID,771.721,VALID,25.658,INVALID,360.0,VALID,0.0,
2019-07-20, 10:19:06,VALID,917.078,VALID,0.0,VALID,57.35,VALID,745.566,VALID,25.644,INVALID,360.0,VALID,0.0,
2019-07-20, 10:20:06,VALID,917.083,VALID,0.0,VALID,57.732,VALID,765.386,VALID,25.659,INVALID,360.0,VALID,0.0,
2019-07-20, 10:21:06,VALID,917.102,VALID,0.0,VALID,58.068,VALID,758.293,VALID,25.722,INVALID,360.0,VALID,0.0,
2019-07-20, 10:22:06,VALID,917.102,VALID,0.0,VALID,57.493,VALID,776.524,VALID,25.667,INVALID,360.0,VALID,0.0,
2019-07-20, 10:23:06,VALID,917.111,VALID,0.0,VALID,56.093,VALID,795.456,VALID,25.606,INVALID,360.0,VALID,0.0,
2019-07-20, 10:24:06,VALID,917.068,VALID,0.0,VALID,57.668,VALID,661.82,VALID,25.602,INVALID,360.0,VALID,0.0,
2019-07-20, 10:25:06,VALID,917.067,VALID,0.0,VALID,57.74,VALID,703.634,VALID,25.751,INVALID,360.0,VALID,0.0,
2019-07-20, 10:26:06,VALID,917.079,VALID,0.0,VALID,58.732,VALID,826.862,VALID,25.887,INVALID,360.0,VALID,0.0,
2019-07-20, 10:27:06,VALID,917.087,VALID,0.0,VALID,60.149,VALID,833.411,VALID,26.039,INVALID,360.0,VALID,0.0,
2019-07-20, 10:28:06,VALID,917.074,VALID,0.0,VALID,59.907,VALID,803.732,VALID,26.307,INVALID,360.0,VALID,0.0,
2019-07-20, 10:29:06,VALID,917.054,VALID,0.0,VALID,57.988,VALID,727.725,VALID,26.563,INVALID,360.0,VALID,0.0,
2019-07-20, 10:30:06,VALID,917.047,VALID,0.0,VALID,56.94,VALID,738.347,VALID,26.401,INVALID,360.0,VALID,0.0,
2019-07-20, 10:31:06,VALID,917.071,VALID,0.0,VALID,55.895,VALID,719.63,VALID,26.151,INVALID,360.0,VALID,0.0,
2019-07-20, 10:32:06,VALID,917.011,VALID,0.0,VALID,56.449,VALID,628.946,VALID,25.938,INVALID,360.0,VALID,0.0,
2019-07-20, 10:33:06,VALID,917.005,VALID,0.0,VALID,57.529,VALID,640.247,VALID,25.898,INVALID,360.0,VALID,0.0,
2019-07-20, 10:34:06,VALID,916.997,VALID,0.0,VALID,58.291,VALID,649.103,VALID,25.91,INVALID,360.0,VALID,0.0,
2019-07-20, 10:35:06,VALID,916.973,VALID,0.0,VALID,58.386,VALID,575.471,VALID,25.927,INVALID,360.0,VALID,0.0,
2019-07-20, 10:36:06,VALID,916.962,VALID,0.0,VALID,57.773,VALID,515.692,VALID,25.836,INVALID,360.0,VALID,0.0,
2019-07-20, 10:37:06,VALID,916.987,VALID,0.0,VALID,59.63,VALID,497.209,VALID,25.854,INVALID,360.0,VALID,0.0,
2019-07-20, 10:38:06,VALID,916.958,VALID,0.0,VALID,58.0,VALID,494.225,VALID,25.946,INVALID,360.0,VALID,0.0,